Home   Weather   Orlando   Past weeks

Flag for USA Past Weather in Orlando, Florida, USA — Yesterday and Last 2 Weeks

Now
61 °F

Clear.


Feels Like: 61 °F
Forecast: 57 / 88 °F
Wind: No wind

Location: Orlando Executive Airport

Current Time: Apr 26, 2017 at 6:17:24 am

Latest Report: Apr 26, 2017 at 4:53 am


Visibility: 10 mi

Pressure: 29.86 "Hg

Humidity: 81%

Dew Point: 55 °F

Location of OrlandoLocation

Past Weather in Orlando — Graph

°F

Orlando Temperature Yesterday

Maximum temperature yesterday: 83 °F (at 4:53 pm)
Minimum temperature yesterday: 60 °F (at 5:53 am)
Average temperature yesterday: 71 °F

High & Low Weather Summary for the Past Weeks

 TemperatureHumidityPressure
High87 °F (Apr 21, 1:53 pm)94% (Apr 22, 5:53 am)30.29 "Hg (Apr 22, 5:53 am)
Low60 °F (Apr 25, 5:53 am)33% (Apr 19, 1:53 pm)29.69 "Hg (Apr 24, 2:53 pm)
Average74 °F62%30.08 "Hg
* Reported Apr 11 4:53 am — Apr 26 4:53 am, Orlando, Weather by CustomWeather, © 2017

Note: Actual official high and low records may vary slightly from our data, if they occured in-between our weather recording intervals... More about our weather records

Advertising

Orlando Weather History for the Previous 24 Hours

Scroll right to see more
 ConditionsComfort  
Time TempWeatherWind HumidityBarometerVisibility
4:53 am
Wed, Apr 26
61 °FClear.No wind81%29.86 "Hg10 mi
3:53 am65 °FClear.3 mph76%29.86 "Hg10 mi
2:53 am66 °FClear.6 mph70%29.86 "Hg10 mi
1:53 am66 °FClear.5 mph68%29.88 "Hg10 mi
12:53 am68 °FClear.8 mph63%29.88 "Hg10 mi
11:53 pm
Tue, Apr 25
69 °FClear.7 mph59%29.87 "Hg10 mi
10:53 pm70 °FClear.8 mph53%29.87 "Hg10 mi
9:53 pm72 °FClear.8 mph46%29.84 "Hg10 mi
8:53 pm75 °FClear.10 mph47%29.82 "Hg10 mi
7:53 pm77 °FSunny.10 mph45%29.80 "Hg10 mi
6:53 pm80 °FScattered clouds.10 mph39%29.79 "Hg10 mi
5:53 pm80 °FSunny.9 mph39%29.78 "Hg10 mi
4:53 pm83 °FPartly sunny.N/A36%29.78 "Hg10 mi
3:53 pm82 °FPassing clouds.12 mph37%29.80 "Hg10 mi
2:53 pm81 °FScattered clouds.8 mph38%29.82 "Hg10 mi
1:53 pm78 °FPartly sunny.13 mph42%29.84 "Hg10 mi
12:53 pm75 °FPartly sunny.9 mph47%29.86 "Hg10 mi
11:53 am73 °FPartly sunny.13 mph51%29.87 "Hg10 mi
10:53 am71 °FPartly sunny.14 mph55%29.87 "Hg10 mi
9:53 am69 °FSunny.8 mph59%29.85 "Hg10 mi
8:53 am67 °FSunny.7 mph63%29.84 "Hg10 mi
7:53 am62 °FSunny.7 mph73%29.83 "Hg10 mi
6:53 am60 °FSunny.No wind72%29.81 "Hg10 mi
Weather by CustomWeather, © 2017

See weather overviewHow to use our weather pages